Location: Hac?musa Deresi
(39.1694°N, 32.2508°E)
Time: 10:42:30
(UTC+00:00)

SL-16 R/B - Pass Details

Date: 22 April 2026
Orbit: 841 x 845 km, 71.0° (Epoch: 20 May)

Event Time Altitude Azimuth Distance (km) Brightness Sun altitude
Rises 23:20:40 0° 341° (NNW) 3,411 5.9 -34.2°
Reaches altitude 10° 23:23:12 10° 347° (NNW) 2,472 5.1 -33.9°
Enters shadow 23:28:01 48° 38° (NE) 1,091 3.0 -33.5°
